EW2109 Weather Reports


Display with metric or nautical units.
time (UTC)temp
F
wind
direction
speed
MPH
gust
MPH
rain 1hr
in
rain 24hr
in
rain mn
in
humidity
%
barometer
mb
20180920221347 43 49 5.0 0.0 0.00 0.00 0.00 84 988.6
20180920215844 43 34 4.0 0.0 0.00 0.00 0.01 85 988.4
20180920214341 44 171 1.0 0.0 0.00 0.00 0.01 80 988.5
20180920212840 45 78 0.0 0.0 0.00 0.00 0.01 76 988.3
20180920211339 45 14 1.0 0.0 0.00 0.00 0.01 77 988.3
20180920205837 45 326 1.0 0.0 0.00 0.00 0.01 75 988.2
20180920204337 46 265 7.0 0.0 0.00 0.00 0.01 73 987.7
20180920202836 45 189 7.0 0.0 0.00 0.00 0.01 73 987.4
20180920201338 45 241 2.0 0.0 0.00 0.00 0.01 76 987.2
20180920195836 45 102 3.0 0.0 0.00 0.00 0.01 72 987.0
20180920194333 46 229 5.0 0.0 0.00 0.00 0.01 71 986.8
20180920192831 47 236 5.0 0.0 0.00 0.00 0.01 68 986.5
20180920191334 47 247 5.0 0.0 0.00 0.00 0.01 66 986.3
20180920185832 47 311 8.0 0.0 0.00 0.00 0.01 65 985.8
20180920184331 47 270 8.0 0.0 0.00 0.00 0.01 63 985.8
20180920182833 47 258 4.0 0.0 0.00 0.00 0.01 62 985.4
20180920181329 47 265 4.0 0.0 0.00 0.00 0.01 62 985.3
20180920175831 47 8 4.0 0.0 0.00 0.00 0.01 63 985.1
20180920174328 48 30 7.0 0.0 0.00 0.00 0.01 58 985.2
20180920172827 48 14 4.0 0.0 0.00 0.00 0.01 58 985.4
20180920171327 48 337 7.0 0.0 0.00 0.00 0.01 54 985.6
20180920165827 48 319 3.0 0.0 0.00 0.00 0.01 58 985.7
20180920164328 48 350 3.0 0.0 0.00 0.00 0.01 57 985.8
20180920162826 49 359 7.0 0.0 0.00 0.00 0.01 56 986.0
20180920161324 49 56 4.0 0.0 0.00 0.00 0.01 53 986.1
20180920155824 48 136 3.0 0.0 0.00 0.00 0.01 58 985.9
20180920154327 49 320 4.0 0.0 0.00 0.00 0.01 60 986.0
20180920152826 49 1 3.0 0.0 0.00 0.00 0.01 58 986.0
20180920151322 48 296 6.0 0.0 0.00 0.00 0.01 60 986.5
20180920145821 47 217 4.0 0.0 0.00 0.00 0.01 64 986.4
20180920144321 47 248 6.0 0.0 0.00 0.00 0.01 70 986.7
20180920142823 48 209 3.0 0.0 0.00 0.00 0.01 67 986.4
20180920141320 49 206 3.0 0.0 0.00 0.00 0.01 58 986.6
20180920135818 48 79 3.0 0.0 0.00 0.00 0.01 66 986.4
20180920134319 49 27 2.0 0.0 0.00 0.00 0.01 66 986.2
20180920132820 49 37 6.0 0.0 0.00 0.00 0.01 62 986.0
20180920131316 49 267 5.0 0.0 0.00 0.00 0.01 65 985.9
20180920125818 48 247 8.0 0.0 0.00 0.00 0.01 65 985.8
20180920124318 46 346 3.0 0.0 0.00 0.00 0.01 72 985.9
20180920122817 48 268 4.0 0.0 0.00 0.00 0.01 68 985.3
20180920121317 49 185 4.0 0.0 0.00 0.00 0.01 62 985.5
20180920115817 48 196 5.0 0.0 0.00 0.00 0.01 65 985.2
20180920114315 48 299 5.0 0.0 0.00 0.00 0.01 68 985.2
20180920112816 48 17 6.0 0.0 0.00 0.00 0.01 69 984.9
20180920111312 47 313 2.0 0.0 0.00 0.00 0.01 71 984.6
20180920105813 47 284 7.0 0.0 0.00 0.00 0.01 69 985.0
20180920104311 45 90 5.0 0.0 0.00 0.00 0.01 74 984.3
20180920102810 46 18 3.0 0.0 0.00 0.00 0.01 76 984.3
20180920101311 46 103 6.0 0.0 0.00 0.00 0.01 72 983.6
20180920095808 47 230 3.0 0.0 0.00 0.00 0.01 65 983.6
20180920094309 47 295 4.0 0.0 0.00 0.00 0.01 65 983.5
20180920092808 46 301 7.0 0.0 0.00 0.00 0.01 72 983.4
20180920091309 46 263 5.0 0.0 0.00 0.00 0.01 69 983.2
20180920085806 46 234 4.0 0.0 0.00 0.00 0.01 68 983.5
20180920084306 46 322 3.0 0.0 0.00 0.00 0.01 69 983.5
20180920082810 46 295 9.0 0.0 0.00 0.00 0.01 65 983.3
20180920081303 47 95 6.0 0.0 0.00 0.00 0.01 64 983.1
20180920075806 47 178 5.0 0.0 0.00 0.00 0.01 65 982.7
20180920074302 47 1 4.0 0.0 0.00 0.00 0.01 66 983.1
20180920072805 45 239 7.0 0.0 0.00 0.00 0.01 68 983.0
20180920071304 46 275 6.0 0.0 0.00 0.00 0.01 68 982.6
20180920065758 46 254 8.0 0.0 0.00 0.00 0.01 70 982.2
20180920064300 47 209 10.0 0.0 0.00 0.00 0.01 67 981.8
20180920062758 48 237 9.0 0.0 0.00 0.00 0.00 62 981.7
20180920061254 47 192 8.0 0.0 0.00 0.00 0.00 64 981.6
20180920055753 46 150 5.0 0.0 0.00 0.00 0.00 71 980.9
20180920054256 46 264 6.0 0.0 0.00 0.00 0.00 74 981.2
20180920052752 45 256 8.0 0.0 0.00 0.00 0.00 76 981.2
20180920051251 44 246 6.0 0.0 0.00 0.00 0.00 82 981.1
20180920045751 44 271 2.0 0.0 0.00 0.00 0.00 81 981.3
20180920044252 44 195 1.0 0.0 0.00 0.00 0.00 80 981.3
20180920042747 44 295 3.0 0.0 0.00 0.00 0.00 81 981.1
20180920041246 44 230 4.0 0.0 0.00 0.00 0.00 82 980.7
20180920035748 44 287 4.0 0.0 0.00 0.00 0.00 80 980.3
20180920034243 45 268 7.0 0.0 0.00 0.00 0.00 82 979.8
20180920032745 44 284 3.0 0.0 0.00 0.00 0.00 85 979.4
20180920031241 44 274 1.0 0.0 0.00 0.00 0.00 84 979.4
20180920025740 44 168 6.0 0.0 0.00 0.00 0.00 85 979.2
20180920024239 43 247 3.0 0.0 0.00 0.00 0.00 87 979.0
20180920022736 42 254 2.0 0.0 0.00 0.00 0.00 89 979.3
20180920021233 43 292 0.0 0.0 0.00 0.00 0.00 86 979.4
20180920015731 44 352 2.0 0.0 0.00 0.00 0.00 84 978.7
20180920014230 44 309 5.0 0.0 0.00 0.00 0.00 80 978.2
20180920012730 45 34 7.0 0.0 0.00 0.00 0.00 78 978.0
20180920011225 45 356 3.0 0.0 0.00 0.00 0.00 82 977.2
20180920005723 46 285 1.0 0.0 0.00 0.00 0.00 81 977.5
20180920004221 46 257 6.0 0.0 0.00 0.00 0.00 76 977.3
20180920002717 48 171 7.0 0.0 0.00 0.00 0.00 70 977.2
20180920001218 48 121 7.0 0.0 0.00 0.00 0.00 71 976.8
20180919235712 48 295 4.0 0.0 0.00 0.00 0.00 74 976.6
20180919234213 49 320 4.0 0.0 0.00 0.00 0.00 70 975.9
20180919232710 50 287 9.0 0.0 0.00 0.00 0.00 69 975.9
20180919231208 49 292 5.0 0.0 0.00 0.00 0.00 73 975.0
20180919225707 48 0 5.0 0.0 0.00 0.00 0.00 79 975.4
20180919224202 49 96 2.0 0.0 0.00 0.00 0.00 78 974.6
20180919222702 51 24 2.0 0.0 0.00 0.00 0.00 71 974.7